Time,TemperatureF,DewpointF,PressureIn,WindDirection,WindDirectionDegrees,WindSpeedMPH,WindSpeedGustMPH,Humidity,HourlyPrecipIn,Conditions,Clouds,dailyrainin,SoftwareType,DateUTC
2013-06-15 00:02:00,65.0,56.0,29.90,SE,143,0.0,2.0,72,0.00,,,0.02,,2013-06-15 04:02:00,
2013-06-15 00:12:00,65.0,56.0,29.90,SE,143,0.0,2.0,72,0.00,,,0.02,,2013-06-15 04:12:00,
2013-06-15 00:22:00,65.0,56.0,29.90,SE,143,0.0,2.0,72,0.00,,,0.02,,2013-06-15 04:22:00,
2013-06-15 00:34:00,65.0,56.0,29.91,SSW,200,1.0,3.0,72,0.00,,,0.02,,2013-06-15 04:34:00,
2013-06-15 00:43:00,62.0,55.0,29.91,SSW,201,0.0,1.0,79,0.00,,,0.02,,2013-06-15 04:43:00,
2013-06-15 00:54:00,62.0,55.0,29.91,SSW,201,0.0,1.0,79,0.00,,,0.02,,2013-06-15 04:54:00,
2013-06-15 01:02:00,62.0,56.0,29.91,South,187,0.0,1.0,81,0.00,,,0.02,,2013-06-15 05:02:00,
2013-06-15 01:12:00,61.0,56.0,29.92,South,186,0.0,1.0,83,0.00,,,0.02,,2013-06-15 05:12:00,
2013-06-15 01:22:00,61.0,56.0,29.92,South,186,0.0,1.0,83,0.00,,,0.02,,2013-06-15 05:22:00,
2013-06-15 01:34:00,60.0,55.0,29.91,South,188,0.0,2.0,85,0.00,,,0.02,,2013-06-15 05:34:00,
2013-06-15 01:43:00,58.0,55.0,29.91,West,262,1.0,3.0,89,0.00,,,0.02,,2013-06-15 05:43:00,
2013-06-15 01:52:00,58.0,55.0,29.91,West,262,1.0,3.0,89,0.00,,,0.02,,2013-06-15 05:52:00,
2013-06-15 02:02:00,59.0,55.0,29.92,West,259,0.0,1.0,88,0.00,,,0.02,,2013-06-15 06:02:00,
2013-06-15 02:12:00,59.0,55.0,29.92,West,259,0.0,1.0,88,0.00,,,0.02,,2013-06-15 06:12:00,
2013-06-15 02:24:00,59.0,55.0,29.92,SW,228,0.0,1.0,88,0.00,,,0.02,,2013-06-15 06:24:00,
2013-06-15 02:33:00,58.0,54.0,29.92,South,190,2.0,3.0,88,0.00,,,0.02,,2013-06-15 06:33:00,
2013-06-15 02:43:00,57.0,54.0,29.93,South,191,0.0,1.0,90,0.00,,,0.02,,2013-06-15 06:43:00,
2013-06-15 02:53:00,57.0,54.0,29.93,South,191,0.0,1.0,90,0.00,,,0.02,,2013-06-15 06:53:00,
2013-06-15 03:01:00,57.0,55.0,29.92,SSW,197,3.0,4.0,92,0.00,,,0.02,,2013-06-15 07:01:00,
2013-06-15 03:11:00,57.0,55.0,29.92,SSW,197,3.0,4.0,92,0.00,,,0.02,,2013-06-15 07:11:00,
2013-06-15 03:23:00,57.0,55.0,29.93,SW,217,0.0,2.0,92,0.00,,,0.02,,2013-06-15 07:23:00,
2013-06-15 03:33:00,57.0,55.0,29.93,SW,216,0.0,1.0,93,0.00,,,0.02,,2013-06-15 07:33:00,
2013-06-15 03:43:00,57.0,55.0,29.92,SW,217,0.0,2.0,93,0.00,,,0.02,,2013-06-15 07:43:00,
2013-06-15 03:53:00,57.0,55.0,29.92,SW,217,0.0,2.0,93,0.00,,,0.02,,2013-06-15 07:53:00,
2013-06-15 04:02:00,56.0,54.0,29.92,SSW,204,0.0,0.0,93,0.00,,,0.01,,2013-06-15 08:02:00,
2013-06-15 04:11:00,56.0,54.0,29.92,SSW,204,0.0,0.0,93,0.00,,,0.01,,2013-06-15 08:11:00,
2013-06-15 04:22:00,56.0,54.0,29.91,SSW,203,3.0,4.0,93,0.00,,,0.01,,2013-06-15 08:22:00,
2013-06-15 04:33:00,55.0,53.0,29.92,SW,222,1.0,2.0,94,0.00,,,0.01,,2013-06-15 08:33:00,
2013-06-15 04:43:00,55.0,54.0,29.92,SW,222,0.0,0.0,95,0.00,,,0.01,,2013-06-15 08:43:00,
2013-06-15 04:53:00,55.0,54.0,29.92,SW,222,0.0,0.0,95,0.00,,,0.01,,2013-06-15 08:53:00,
2013-06-15 05:02:00,55.0,54.0,29.92,SW,222,0.0,1.0,95,0.00,,,0.00,,2013-06-15 09:02:00,
2013-06-15 05:12:00,55.0,54.0,29.92,SW,222,0.0,1.0,95,0.00,,,0.00,,2013-06-15 09:12:00,
2013-06-15 05:22:00,55.0,54.0,29.92,SW,222,0.0,0.0,95,0.00,,,0.00,,2013-06-15 09:22:00,
2013-06-15 05:33:00,55.0,54.0,29.93,SW,222,0.0,1.0,95,0.00,,,0.00,,2013-06-15 09:33:00,
2013-06-15 05:43:00,55.0,54.0,29.93,SW,221,0.0,1.0,95,0.00,,,0.00,,2013-06-15 09:43:00,
2013-06-15 05:52:00,55.0,54.0,29.93,SW,221,0.0,1.0,95,0.00,,,0.00,,2013-06-15 09:52:00,
2013-06-15 06:02:00,55.0,54.0,29.94,SW,222,0.0,0.0,95,0.00,,,0.00,,2013-06-15 10:02:00,
2013-06-15 06:12:00,55.0,54.0,29.94,SW,222,0.0,0.0,95,0.00,,,0.00,,2013-06-15 10:12:00,
2013-06-15 06:23:00,54.0,53.0,29.95,SW,223,0.0,1.0,95,0.00,,,0.00,,2013-06-15 10:23:00,
2013-06-15 06:34:00,54.0,53.0,29.95,SW,223,0.0,1.0,95,0.00,,,0.00,,2013-06-15 10:34:00,
2013-06-15 06:44:00,55.0,54.0,29.95,SW,224,0.0,1.0,96,0.00,,,0.00,,2013-06-15 10:44:00,
2013-06-15 06:53:00,58.0,56.0,29.96,SW,224,0.0,0.0,94,0.00,,,0.00,,2013-06-15 10:53:00,
2013-06-15 07:02:00,58.0,56.0,29.96,SW,224,0.0,0.0,94,0.00,,,0.00,,2013-06-15 11:02:00,
2013-06-15 07:12:00,60.0,57.0,29.97,SW,224,0.0,0.0,91,0.00,,,0.00,,2013-06-15 11:12:00,
2013-06-15 07:22:00,61.0,57.0,29.97,ENE,61,0.0,2.0,88,0.00,,,0.00,,2013-06-15 11:22:00,
2013-06-15 07:33:00,62.0,57.0,29.97,NNE,17,2.0,3.0,84,0.00,,,0.00,,2013-06-15 11:33:00,
2013-06-15 07:43:00,62.0,57.0,29.97,NNE,17,2.0,3.0,84,0.00,,,0.00,,2013-06-15 11:43:00,
2013-06-15 07:53:00,62.0,58.0,29.98,East,92,0.0,2.0,86,0.00,,,0.00,,2013-06-15 11:53:00,
2013-06-15 08:02:00,62.0,58.0,29.98,East,92,0.0,2.0,86,0.00,,,0.00,,2013-06-15 12:02:00,
2013-06-15 08:12:00,64.0,59.0,29.99,NE,42,0.0,3.0,84,0.00,,,0.00,,2013-06-15 12:12:00,
2013-06-15 08:22:00,65.0,59.0,30.00,East,82,1.0,3.0,81,0.00,,,0.00,,2013-06-15 12:22:00,
2013-06-15 08:33:00,65.0,59.0,30.00,East,82,1.0,3.0,81,0.00,,,0.00,,2013-06-15 12:33:00,
2013-06-15 08:43:00,65.0,58.0,30.00,ESE,114,2.0,4.0,77,0.00,,,0.00,,2013-06-15 12:43:00,
2013-06-15 08:53:00,66.0,59.0,30.00,NE,53,2.0,4.0,77,0.00,,,0.00,,2013-06-15 12:53:00,
2013-06-15 09:02:00,67.0,59.0,30.01,ENE,73,1.0,4.0,75,0.00,,,0.00,,2013-06-15 13:02:00,
2013-06-15 09:11:00,67.0,59.0,30.01,ENE,73,1.0,4.0,75,0.00,,,0.00,,2013-06-15 13:11:00,
2013-06-15 09:22:00,68.0,59.0,30.01,ENE,78,5.0,8.0,73,0.00,,,0.00,,2013-06-15 13:22:00,
2013-06-15 09:32:00,68.0,59.0,30.01,ENE,78,5.0,8.0,73,0.00,,,0.00,,2013-06-15 13:32:00,
2013-06-15 09:43:00,69.0,60.0,30.01,SE,124,1.0,5.0,73,0.00,,,0.00,,2013-06-15 13:43:00,
2013-06-15 09:53:00,70.0,59.0,30.00,SE,138,1.0,6.0,68,0.00,,,0.00,,2013-06-15 13:53:00,
2013-06-15 10:02:00,71.0,59.0,30.00,East,87,1.0,4.0,67,0.00,,,0.00,,2013-06-15 14:02:00,
2013-06-15 10:12:00,71.0,59.0,30.00,East,87,1.0,4.0,67,0.00,,,0.00,,2013-06-15 14:12:00,
2013-06-15 10:23:00,71.0,59.0,30.00,ESE,110,4.0,8.0,66,0.00,,,0.00,,2013-06-15 14:23:00,
2013-06-15 10:34:00,71.0,58.0,29.99,SE,134,3.0,6.0,64,0.00,,,0.00,,2013-06-15 14:34:00,
2013-06-15 10:43:00,71.0,58.0,29.99,SE,134,3.0,6.0,64,0.00,,,0.00,,2013-06-15 14:43:00,
2013-06-15 10:54:00,71.0,60.0,29.99,East,100,5.0,10.0,68,0.00,,,0.00,,2013-06-15 14:54:00,
2013-06-15 11:02:00,72.0,59.0,29.99,East,89,7.0,10.0,64,0.00,,,0.00,,2013-06-15 15:02:00,
2013-06-15 11:12:00,72.0,59.0,29.99,East,89,7.0,10.0,64,0.00,,,0.00,,2013-06-15 15:12:00,
2013-06-15 11:22:00,72.0,59.0,29.98,NNE,27,5.0,9.0,64,0.00,,,0.00,,2013-06-15 15:22:00,
2013-06-15 11:33:00,72.0,59.0,29.98,NNE,27,5.0,9.0,64,0.00,,,0.00,,2013-06-15 15:33:00,
2013-06-15 11:43:00,73.0,59.0,29.98,East,91,4.0,9.0,62,0.00,,,0.00,,2013-06-15 15:43:00,
2013-06-15 11:53:00,73.0,58.0,29.98,East,91,7.0,10.0,60,0.00,,,0.00,,2013-06-15 15:53:00,
2013-06-15 12:01:00,73.0,58.0,29.98,East,91,7.0,10.0,60,0.00,,,0.00,,2013-06-15 16:01:00,
2013-06-15 12:12:00,74.0,59.0,29.98,East,84,7.0,12.0,59,0.00,,,0.00,,2013-06-15 16:12:00,
2013-06-15 12:22:00,74.0,59.0,29.98,ENE,61,5.0,10.0,60,0.00,,,0.00,,2013-06-15 16:22:00,
2013-06-15 12:33:00,74.0,59.0,29.98,ENE,61,5.0,10.0,60,0.00,,,0.00,,2013-06-15 16:33:00,
2013-06-15 12:43:00,74.0,59.0,29.98,East,87,5.0,12.0,59,0.00,,,0.00,,2013-06-15 16:43:00,
2013-06-15 12:53:00,75.0,58.0,29.97,ESE,121,6.0,11.0,56,0.00,,,0.00,,2013-06-15 16:53:00,
2013-06-15 13:02:00,75.0,58.0,29.97,ESE,121,6.0,11.0,56,0.00,,,0.00,,2013-06-15 17:02:00,
2013-06-15 13:12:00,75.0,58.0,29.96,ESE,117,4.0,9.0,55,0.00,,,0.00,,2013-06-15 17:12:00,
2013-06-15 13:22:00,76.0,58.0,29.96,ESE,110,7.0,14.0,54,0.00,,,0.00,,2013-06-15 17:22:00,
2013-06-15 13:32:00,76.0,58.0,29.96,ESE,110,7.0,14.0,54,0.00,,,0.00,,2013-06-15 17:32:00,
2013-06-15 13:43:00,76.0,54.0,29.95,SE,124,8.0,14.0,46,0.00,,,0.00,,2013-06-15 17:43:00,
2013-06-15 13:52:00,77.0,56.0,29.96,SE,124,11.0,15.0,49,0.00,,,0.00,,2013-06-15 17:52:00,
2013-06-15 14:01:00,77.0,56.0,29.96,SE,124,11.0,15.0,49,0.00,,,0.00,,2013-06-15 18:01:00,
2013-06-15 14:12:00,77.0,56.0,29.95,ESE,113,7.0,15.0,49,0.00,,,0.00,,2013-06-15 18:12:00,
2013-06-15 14:22:00,77.0,56.0,29.94,SE,131,10.0,14.0,48,0.00,,,0.00,,2013-06-15 18:22:00,
2013-06-15 14:33:00,77.0,56.0,29.94,SE,131,10.0,14.0,48,0.00,,,0.00,,2013-06-15 18:33:00,
2013-06-15 14:43:00,77.0,56.0,29.94,East,83,7.0,15.0,48,0.00,,,0.00,,2013-06-15 18:43:00,
2013-06-15 14:53:00,77.0,56.0,29.94,ESE,115,3.0,10.0,49,0.00,,,0.00,,2013-06-15 18:53:00,
2013-06-15 15:02:00,77.0,56.0,29.94,ESE,115,3.0,10.0,49,0.00,,,0.00,,2013-06-15 19:02:00,
2013-06-15 15:12:00,77.0,56.0,29.93,East,90,5.0,10.0,49,0.00,,,0.00,,2013-06-15 19:12:00,
2013-06-15 15:22:00,77.0,56.0,29.93,ESE,115,6.0,11.0,49,0.00,,,0.00,,2013-06-15 19:22:00,
2013-06-15 15:33:00,77.0,56.0,29.93,ESE,115,6.0,11.0,49,0.00,,,0.00,,2013-06-15 19:33:00,
2013-06-15 15:43:00,78.0,57.0,29.93,ENE,76,5.0,10.0,49,0.00,,,0.00,,2013-06-15 19:43:00,
2013-06-15 15:52:00,78.0,55.0,29.92,ESE,118,8.0,13.0,45,0.00,,,0.00,,2013-06-15 19:52:00,
2013-06-15 16:02:00,78.0,55.0,29.92,ESE,118,8.0,13.0,45,0.00,,,0.00,,2013-06-15 20:02:00,
2013-06-15 16:12:00,78.0,57.0,29.92,East,99,7.0,12.0,49,0.00,,,0.00,,2013-06-15 20:12:00,
2013-06-15 16:22:00,78.0,54.0,29.93,ESE,118,6.0,10.0,44,0.00,,,0.00,,2013-06-15 20:22:00,
2013-06-15 16:33:00,78.0,54.0,29.93,ESE,118,6.0,10.0,44,0.00,,,0.00,,2013-06-15 20:33:00,
2013-06-15 16:43:00,78.0,54.0,29.93,NE,40,7.0,12.0,44,0.00,,,0.00,,2013-06-15 20:43:00,
2013-06-15 16:53:00,78.0,54.0,29.93,NE,40,7.0,12.0,44,0.00,,,0.00,,2013-06-15 20:53:00,
2013-06-15 17:02:00,78.0,54.0,29.92,ENE,61,7.0,10.0,43,0.00,,,0.00,,2013-06-15 21:02:00,
2013-06-15 17:12:00,78.0,55.0,29.93,East,82,12.0,17.0,45,0.00,,,0.00,,2013-06-15 21:12:00,
2013-06-15 17:22:00,78.0,54.0,29.92,ESE,110,6.0,12.0,44,0.00,,,0.00,,2013-06-15 21:22:00,
2013-06-15 17:34:00,78.0,54.0,29.92,ESE,110,6.0,12.0,44,0.00,,,0.00,,2013-06-15 21:34:00,
2013-06-15 17:42:00,78.0,54.0,29.92,ESE,113,8.0,12.0,44,0.00,,,0.00,,2013-06-15 21:42:00,
2013-06-15 17:52:00,78.0,54.0,29.92,ESE,113,8.0,12.0,44,0.00,,,0.00,,2013-06-15 21:52:00,
2013-06-15 18:01:00,78.0,54.0,29.92,ENE,71,5.0,11.0,44,0.00,,,0.00,,2013-06-15 22:01:00,
2013-06-15 18:11:00,77.0,54.0,29.92,ESE,116,5.0,13.0,45,0.00,,,0.00,,2013-06-15 22:11:00,
2013-06-15 18:22:00,77.0,54.0,29.92,ESE,116,5.0,13.0,45,0.00,,,0.00,,2013-06-15 22:22:00,
2013-06-15 18:33:00,77.0,54.0,29.92,ESE,114,6.0,10.0,45,0.00,,,0.00,,2013-06-15 22:33:00,
2013-06-15 18:43:00,77.0,55.0,29.93,ESE,118,5.0,10.0,47,0.00,,,0.00,,2013-06-15 22:43:00,
2013-06-15 18:53:00,77.0,55.0,29.93,ESE,118,5.0,10.0,47,0.00,,,0.00,,2013-06-15 22:53:00,
2013-06-15 19:02:00,77.0,54.0,29.92,East,84,7.0,11.0,45,0.00,,,0.00,,2013-06-15 23:02:00,
2013-06-15 19:12:00,77.0,54.0,29.93,ESE,117,5.0,10.0,45,0.00,,,0.00,,2013-06-15 23:12:00,
2013-06-15 19:22:00,77.0,54.0,29.93,ESE,117,5.0,10.0,45,0.00,,,0.00,,2013-06-15 23:22:00,
2013-06-15 19:33:00,76.0,54.0,29.93,ESE,115,6.0,9.0,46,0.00,,,0.00,,2013-06-15 23:33:00,
2013-06-15 19:42:00,76.0,55.0,29.93,ENE,77,4.0,8.0,48,0.00,,,0.00,,2013-06-15 23:42:00,
2013-06-15 19:53:00,76.0,55.0,29.93,ENE,77,4.0,8.0,48,0.00,,,0.00,,2013-06-15 23:53:00,
2013-06-15 20:02:00,76.0,55.0,29.93,East,101,4.0,7.0,48,0.00,,,0.00,,2013-06-16 00:02:00,
2013-06-15 20:11:00,75.0,55.0,29.93,ESE,108,4.0,5.0,49,0.00,,,0.00,,2013-06-16 00:11:00,
2013-06-15 20:22:00,75.0,55.0,29.93,ESE,108,4.0,5.0,49,0.00,,,0.00,,2013-06-16 00:22:00,
2013-06-15 20:34:00,75.0,55.0,29.94,ESE,110,1.0,3.0,50,0.00,,,0.00,,2013-06-16 00:34:00,
2013-06-15 20:43:00,74.0,56.0,29.94,East,79,1.0,3.0,53,0.00,,,0.00,,2013-06-16 00:43:00,
2013-06-15 20:52:00,74.0,56.0,29.94,East,79,1.0,3.0,53,0.00,,,0.00,,2013-06-16 00:52:00,
2013-06-15 21:02:00,73.0,56.0,29.94,East,87,1.0,4.0,56,0.00,,,0.00,,2013-06-16 01:02:00,
2013-06-15 21:12:00,72.0,55.0,29.94,East,84,0.0,2.0,56,0.00,,,0.00,,2013-06-16 01:12:00,
2013-06-15 21:22:00,72.0,55.0,29.94,East,84,0.0,2.0,56,0.00,,,0.00,,2013-06-16 01:22:00,
2013-06-15 21:33:00,71.0,55.0,29.94,East,84,0.0,0.0,57,0.00,,,0.00,,2013-06-16 01:33:00,
2013-06-15 21:42:00,69.0,56.0,29.94,SSW,195,0.0,1.0,64,0.00,,,0.00,,2013-06-16 01:42:00,
2013-06-15 21:53:00,69.0,56.0,29.94,SSW,195,0.0,1.0,64,0.00,,,0.00,,2013-06-16 01:53:00,
2013-06-15 22:02:00,69.0,56.0,29.95,ESE,117,0.0,2.0,63,0.00,,,0.00,,2013-06-16 02:02:00,
2013-06-15 22:12:00,69.0,56.0,29.95,ESE,117,0.0,2.0,63,0.00,,,0.00,,2013-06-16 02:12:00,
2013-06-15 22:22:00,68.0,57.0,29.96,ESE,113,0.0,1.0,68,0.00,,,0.00,,2013-06-16 02:22:00,
2013-06-15 22:33:00,66.0,57.0,29.96,South,173,0.0,0.0,72,0.00,,,0.00,,2013-06-16 02:33:00,
2013-06-15 22:43:00,66.0,57.0,29.96,South,173,0.0,0.0,72,0.00,,,0.00,,2013-06-16 02:43:00,
2013-06-15 22:53:00,64.0,57.0,29.96,SSW,193,1.0,3.0,79,0.00,,,0.00,,2013-06-16 02:53:00,
2013-06-15 23:02:00,63.0,57.0,29.96,SSW,197,3.0,4.0,81,0.00,,,0.00,,2013-06-16 03:02:00,
2013-06-15 23:12:00,63.0,57.0,29.96,SSW,197,3.0,4.0,81,0.00,,,0.00,,2013-06-16 03:12:00,
2013-06-15 23:22:00,63.0,57.0,29.96,SW,215,0.0,3.0,81,0.00,,,0.00,,2013-06-16 03:22:00,
2013-06-15 23:34:00,62.0,56.0,29.96,SSW,207,0.0,2.0,82,0.00,,,0.00,,2013-06-16 03:34:00,
2013-06-15 23:43:00,62.0,56.0,29.96,SSW,207,0.0,2.0,82,0.00,,,0.00,,2013-06-16 03:43:00,
2013-06-15 23:53:00,62.0,57.0,29.96,SSW,207,0.0,1.0,84,0.00,,,0.00,,2013-06-16 03:53:00,